Location: Sevilla
(37.3933°N, 5.9839°W)
Time: 05:30:08
(UTC+02:00)

Transit 2A - Pass Details

Date: 29 June 2024
Orbit: 591 x 960 km, 66.7° (Epoch: 15 July)

Event Time Altitude Azimuth Distance (km) Brightness Sun altitude
Rises 23:38:06 0° 341° (NNW) 3,562 10.7 -17.5°
Reaches altitude 10° 23:40:58 10° 352° (N) 2,652 9.6 -17.9°
Maximum altitude 23:46:20 29° 51° (NE) 1,678 7.7 -18.5°
Enters shadow 23:49:39 19° 96° (E) 2,117 7.9 -19.0°
Drops below altitude 10° 23:51:45 10° 110° (ESE) 2,685 - -19.2°
Sets 23:54:39 0° 121° (ESE) 3,612 - -19.6°
